Location: Cronhütte
(48.9135°N, 9.6869°E)
Time: 03:38:34
(UTC+00:00)

Cosmos 2082 Rocket - Pass Details

Date: 23 May 2024
Orbit: 832 x 853 km, 71.0° (Epoch: 13 June)

Event Time Altitude Azimuth Distance (km) Brightness Sun altitude
Exits shadow 01:48:52 - 256° (WSW) 2,557 4.3 -12.8°
Reaches altitude 10° 01:49:06 10° 257° (WSW) 2,484 4.2 -12.7°
Maximum altitude 01:53:55 27° 315° (NW) 1,578 3.7 -12.3°
Drops below altitude 10° 01:58:46 10° 13° (NNE) 2,492 5.8 -11.8°
Sets 02:01:37 0° 25° (NNE) 3,430 7.1 -11.5°
